| Date | Time | Temp. (oF) | Dew Point (oF) | Rel. Hum. (%) | Press. (in.) | Wind Dir. | Wind Speed (mph) | Hourly Rainfall (in.) |
|
|---|---|---|---|---|---|---|---|---|---|
| 1 | miss | miss | miss | miss | miss | miss | miss | miss | |
| 2 | 10/06 | 22:35 | 52 | 35 | 53 | 30.04 | SW | 1 | 0.00 |
| 3 | 10/06 | 22:00 | 53 | 34 | 50 | 30.03 | SSW | 2 | 0.00 |
| 4 | 10/06 | 21:00 | 55 | 36 | 49 | 30.00 | WNW | 6 | 0.00 |
| 5 | 10/06 | 20:00 | 56 | 35 | 47 | 29.98 | NW | 1 | 0.00 |
| 6 | 10/06 | 19:00 | 57 | 36 | 47 | 29.94 | WNW | 4 | 0.00 |
| 7 | 10/06 | 18:00 | 59 | 37 | 45 | 29.91 | W | 6 | 0.00 |
| 8 | 10/06 | 17:00 | 60 | 37 | 44 | 29.90 | NNW | 5 | 0.00 |
| 9 | 10/06 | 16:00 | 61 | 38 | 43 | 29.90 | W | 10 | 0.00 |
| 10 | 10/06 | 15:00 | 59 | 38 | 47 | 29.91 | WNW | 6 | 0.00 |
| 11 | 10/06 | 14:00 | 60 | 38 | 45 | 29.92 | WNW | 16 | 0.00 |
| 12 | 10/06 | 13:00 | 61 | 42 | 51 | 29.93 | W | 11 | 0.00 |
| 13 | miss | miss | miss | miss | miss | miss | miss | miss | |
| 14 | 10/05 | 16:28 | 79 | 52 | 40 | 29.87 | S | 7 | 0.00 |
| 15 | miss | miss | miss | miss | miss | miss | miss | miss | |
| 16 | 10/05 | 16:26 | 79 | 51 | 39 | 29.86 | S | 4 | 0.00 |
| 17 | miss | miss | miss | miss | miss | miss | miss | miss | |
| 18 | 10/05 | 16:24 | 79 | 51 | 39 | 29.86 | SSW | 6 | 0.00 |
| 19 | miss | miss | miss | miss | miss | miss | miss | miss | |
| 20 | 10/05 | 16:22 | 79 | 51 | 39 | 29.87 | SSW | 8 | 0.00 |
| 21 | miss | miss | miss | miss | miss | miss | miss | miss | |
| 22 | 10/05 | 16:20 | 79 | 51 | 39 | 29.86 | S | 12 | 0.00 |
| 23 | miss | miss | miss | miss | miss | miss | miss | miss | |
| 24 | 10/05 | 16:18 | 79 | 51 | 39 | 29.87 | SSW | 12 | 0.00 |
| 25 | miss | miss | miss | miss | miss | miss | miss | miss | |
| 26 | 10/05 | 16:17 | 79 | 50 | 38 | 29.87 | S | 8 | 0.00 |
| 27 | miss | miss | miss | miss | miss | miss | miss | miss | |
| 28 | 10/05 | 16:17 | 79 | 50 | 38 | 29.87 | S | 8 | 0.00 |
| 29 | miss | miss | miss | miss | miss | miss | miss | miss | |
| 30 | 10/05 | 16:17 | 79 | 50 | 38 | 29.87 | S | 8 | 0.00 |
| 31 | miss | miss | miss | miss | miss | miss | miss | miss | |
| 32 | 10/05 | 16:17 | 79 | 50 | 38 | 29.87 | S | 8 | 0.00 |
| 33 | 10/05 | 16:00 | 79 | 51 | 39 | 29.88 | SSW | 14 | 0.00 |
| 34 | 10/05 | 15:00 | 80 | 52 | 39 | 29.90 | SW | 3 | 0.00 |
| 35 | 10/05 | 14:00 | 80 | 53 | 40 | 29.95 | SSW | 3 | 0.00 |
| 36 | 10/05 | 13:00 | 78 | 51 | 40 | 29.99 | S | 4 | 0.00 |
| 37 | 10/05 | 12:00 | 78 | 54 | 44 | 30.01 | SW | 6 | 0.00 |
| 38 | 10/05 | 11:00 | 70 | 58 | 68 | 30.04 | SSE | 1 | 0.00 |
| 39 | 10/05 | 10:00 | 62 | 57 | 84 | 30.07 | SE | 1 | 0.00 |
| 40 | 10/05 | 09:00 | 57 | 54 | 93 | 30.07 | SSW | 0 | 0.00 |
| 41 | 10/05 | 08:00 | 53 | 51 | 93 | 30.07 | NW | 0 | 0.00 |
| 42 | 10/05 | 07:00 | 53 | 51 | 93 | 30.06 | NW | 0 | 0.00 |
| 43 | 10/05 | 06:00 | 54 | 51 | 92 | 30.06 | NW | 0 | 0.00 |
| 44 | 10/05 | 05:00 | 55 | 52 | 91 | 30.05 | NW | 0 | 0.00 |
| 45 | 10/05 | 04:00 | 57 | 53 | 89 | 30.03 | WNW | 0 | 0.00 |
| 46 | 10/05 | 03:00 | 57 | 53 | 89 | 30.03 | WNW | 0 | 0.00 |
| 47 | 10/05 | 02:00 | 59 | 54 | 85 | 30.04 | SSW | 0 | 0.00 |
| 48 | 10/05 | 01:00 | 60 | 54 | 83 | 30.04 | WNW | 3 | 0.00 |
| 49 | 10/05 | 00:00 | 62 | 54 | 77 | 30.05 | SSW | 0 | 0.00 |
| 50 | 10/04 | 23:00 | 65 | 54 | 70 | 30.04 | SSW | 0 | 0.00 |
| 51 | 10/04 | 22:00 | 67 | 54 | 64 | 30.04 | SW | 2 | 0.00 |
| 52 | 10/04 | 21:00 | 70 | 54 | 59 | 30.03 | SSW | 1 | 0.00 |
| 53 | 10/04 | 20:00 | 71 | 53 | 55 | 30.01 | S | 2 | 0.00 |
| 54 | 10/04 | 19:00 | 74 | 54 | 50 | 29.99 | S | 4 | 0.00 |
| 55 | 10/04 | 18:00 | 78 | 52 | 42 | 29.96 | S | 4 | 0.00 |
| 56 | 10/04 | 17:00 | 80 | 51 | 37 | 29.96 | SW | 5 | 0.00 |
| 57 | 10/04 | 16:00 | 81 | 51 | 36 | 29.97 | WSW | 7 | 0.00 |
| 58 | 10/04 | 15:00 | 81 | 51 | 36 | 30.00 | SW | 7 | 0.00 |
| 59 | 10/04 | 14:00 | 81 | 54 | 40 | 30.02 | S | 6 | 0.00 |
| 60 | 10/04 | 13:00 | 79 | 53 | 41 | 30.05 | WSW | 7 | 0.00 |
| 61 | 10/04 | 12:00 | 77 | 53 | 45 | 30.06 | SW | 4 | 0.00 |
| 62 | 10/04 | 11:00 | 75 | 54 | 50 | 30.08 | SSW | 4 | 0.00 |
| 63 | 10/04 | 10:00 | 68 | 59 | 74 | 30.09 | SSW | 4 | 0.00 |
| 64 | 10/04 | 09:00 | 59 | 57 | 96 | 30.08 | SSW | 0 | 0.00 |
| 65 | 10/04 | 08:00 | 56 | 54 | 94 | 30.07 | WSW | 0 | 0.00 |
| 66 | 10/04 | 07:00 | 57 | 54 | 92 | 30.06 | WSW | 0 | 0.00 |
| 67 | 10/04 | 06:00 | 58 | 55 | 91 | 30.05 | SW | 0 | 0.00 |
| 68 | 10/04 | 05:00 | 59 | 56 | 90 | 30.04 | SSW | 0 | 0.00 |
| 69 | 10/04 | 04:00 | 61 | 57 | 89 | 30.03 | SW | 0 | 0.00 |
| 70 | 10/04 | 03:00 | 63 | 58 | 86 | 30.04 | SW | 0 | 0.00 |